TimeCDT,TemperatureF,Dew PointF,Humidity,Sea Level PressureIn,VisibilityMPH,Wind Direction,Wind SpeedMPH,Gust SpeedMPH,PrecipitationIn,Events,Conditions,WindDirDegrees,DateUTC
12:39 AM,75.2,73.4,94,29.85,2.0,Calm,Calm,-,N/A,,Clear,0,2012-10-19 05:39:00
12:52 AM,75.9,73.9,94,29.86,1.8,Calm,Calm,-,N/A,,Clear,0,2012-10-19 05:52:00
1:09 AM,75.2,73.4,94,29.86,2.5,Calm,Calm,-,N/A,,Clear,0,2012-10-19 06:09:00
1:18 AM,75.2,73.4,94,29.86,3.0,NNE,3.5,-,N/A,,Clear,20,2012-10-19 06:18:00
1:28 AM,75.2,75.2,100,29.86,2.5,NNE,3.5,-,N/A,,Partly Cloudy,20,2012-10-19 06:28:00
1:52 AM,75.9,75.0,97,29.86,2.0,NNE,3.5,-,N/A,,Partly Cloudy,30,2012-10-19 06:52:00
2:23 AM,75.2,75.2,100,29.86,1.8,North,3.5,-,N/A,,Clear,10,2012-10-19 07:23:00
2:52 AM,75.9,75.0,97,29.86,1.5,NW,5.8,-,N/A,,Scattered Clouds,320,2012-10-19 07:52:00
3:08 AM,75.2,75.2,100,29.86,1.5,NNW,4.6,-,N/A,,Mostly Cloudy,340,2012-10-19 08:08:00
3:16 AM,75.2,75.2,100,29.86,0.8,NNW,4.6,-,N/A,,Mostly Cloudy,330,2012-10-19 08:16:00
3:22 AM,75.2,75.2,100,29.86,0.2,NNW,4.6,-,N/A,Fog,Fog,340,2012-10-19 08:22:00
3:52 AM,77.0,75.9,96,29.86,1.0,North,5.8,-,0.01,,Overcast,360,2012-10-19 08:52:00
4:05 AM,77.0,75.2,94,29.86,2.0,North,5.8,-,N/A,,Overcast,10,2012-10-19 09:05:00
4:15 AM,77.0,75.2,94,29.86,2.0,North,8.1,-,N/A,,Mostly Cloudy,360,2012-10-19 09:15:00
4:30 AM,78.8,75.2,89,29.86,3.0,North,8.1,-,N/A,,Mostly Cloudy,10,2012-10-19 09:30:00
4:44 AM,77.0,75.2,94,29.86,3.0,NNE,5.8,-,N/A,,Scattered Clouds,20,2012-10-19 09:44:00
4:52 AM,77.0,75.9,96,29.86,3.0,North,6.9,-,N/A,,Mostly Cloudy,10,2012-10-19 09:52:00
5:03 AM,77.0,75.2,94,29.87,3.0,North,5.8,-,N/A,,Mostly Cloudy,10,2012-10-19 10:03:00
5:52 AM,77.0,75.9,96,29.87,5.0,North,9.2,-,N/A,,Mostly Cloudy,10,2012-10-19 10:52:00
6:25 AM,77.0,75.2,94,29.89,7.0,North,6.9,-,N/A,,Mostly Cloudy,10,2012-10-19 11:25:00
6:52 AM,75.9,75.0,97,29.90,9.0,North,9.2,-,N/A,,Overcast,350,2012-10-19 11:52:00
7:50 AM,75.2,71.6,89,29.91,5.0,North,10.4,-,N/A,,Scattered Clouds,360,2012-10-19 12:50:00
7:52 AM,75.0,71.1,87,29.91,5.0,North,10.4,-,N/A,,Scattered Clouds,360,2012-10-19 12:52:00
8:52 AM,73.0,70.0,90,29.93,7.0,NNW,8.1,-,N/A,,Mostly Cloudy,340,2012-10-19 13:52:00
9:52 AM,79.0,73.0,82,29.96,8.0,NNE,9.2,-,N/A,,Clear,20,2012-10-19 14:52:00
10:21 AM,82.4,73.4,74,29.96,10.0,NE,9.2,-,N/A,,Mostly Cloudy,40,2012-10-19 15:21:00
10:35 AM,82.4,73.4,74,29.96,10.0,NE,15.0,-,N/A,,Scattered Clouds,50,2012-10-19 15:35:00
10:52 AM,84.0,73.0,69,29.96,10.0,ENE,17.3,-,N/A,,Mostly Cloudy,60,2012-10-19 15:52:00
11:38 AM,86.0,71.6,62,29.97,10.0,ENE,17.3,-,N/A,,Mostly Cloudy,70,2012-10-19 16:38:00
11:52 AM,87.1,72.0,61,29.96,10.0,ENE,18.4,-,N/A,,Mostly Cloudy,60,2012-10-19 16:52:00
12:52 PM,87.1,71.1,59,29.94,10.0,ENE,16.1,-,N/A,,Mostly Cloudy,70,2012-10-19 17:52:00
1:52 PM,86.0,72.0,63,29.92,10.0,ENE,16.1,-,N/A,,Overcast,60,2012-10-19 18:52:00
2:34 PM,87.8,71.6,58,29.90,10.0,ENE,13.8,-,N/A,,Overcast,70,2012-10-19 19:34:00
2:52 PM,84.9,71.1,63,29.90,10.0,ENE,16.1,-,N/A,,Mostly Cloudy,70,2012-10-19 19:52:00
3:52 PM,82.9,71.1,67,29.89,10.0,NE,21.9,27.6,N/A,,Mostly Cloudy,40,2012-10-19 20:52:00
4:52 PM,84.9,70.0,61,29.88,10.0,ENE,16.1,24.2,N/A,,Scattered Clouds,70,2012-10-19 21:52:00
5:02 PM,84.2,71.6,66,29.88,10.0,ENE,15.0,23.0,N/A,,Mostly Cloudy,70,2012-10-19 22:02:00
5:09 PM,84.2,69.8,62,29.89,10.0,East,16.1,23.0,N/A,,Mostly Cloudy,80,2012-10-19 22:09:00
5:52 PM,82.0,70.0,67,29.89,10.0,East,15.0,-,N/A,,Mostly Cloudy,80,2012-10-19 22:52:00
6:03 PM,80.6,69.8,70,29.90,10.0,East,19.6,-,N/A,,Overcast,80,2012-10-19 23:03:00
6:20 PM,80.6,69.8,70,29.90,10.0,East,13.8,-,0.00,,Overcast,90,2012-10-19 23:20:00
6:52 PM,80.1,70.0,71,29.91,10.0,ESE,11.5,-,0.00,,Mostly Cloudy,110,2012-10-19 23:52:00
7:00 PM,78.8,69.8,74,29.91,10.0,SSE,10.4,-,N/A,,Mostly Cloudy,160,2012-10-20 00:00:00
7:34 PM,78.8,69.8,74,29.90,10.0,East,10.4,-,0.00,,Mostly Cloudy,80,2012-10-20 00:34:00
7:52 PM,77.0,70.0,79,29.90,10.0,East,8.1,-,0.00,,Partly Cloudy,80,2012-10-20 00:52:00
8:52 PM,75.9,70.0,82,29.92,10.0,East,5.8,-,N/A,,Clear,100,2012-10-20 01:52:00
9:52 PM,75.0,70.0,84,29.92,10.0,East,3.5,-,N/A,,Clear,90,2012-10-20 02:52:00
10:52 PM,73.9,70.0,87,29.92,10.0,SE,3.5,-,N/A,,Clear,130,2012-10-20 03:52:00
11:52 PM,73.0,70.0,90,29.92,10.0,SE,3.5,-,N/A,,Clear,130,2012-10-20 04:52:00